www.pogodaiklimat.ru

Погода и климат >> Архив погоды >> Гана >> Кумаси


ПОГОДА в Кумаси

  • Прогноз погоды в Кумаси
  • Монитор погоды в Кумаси

АРХИВ ПОГОДЫ в Кумаси

Время (UTC), дата Ветер
(напр.,м/с)
 
Видим.   Явления Облачность Т
(С)
Тd
(С)
f
(%)
Тe
(С)
Тes
(С)
Комфортность P
(гПа)
Po
(гПа)
Тmin
(С)
Tmax
(С)
R
(мм)
R24
(мм)
S
(см)
03 10.07 ЮЗ 3 14 км 9/9 300 м
[Sc]
+23.6 +21.9 90 +30 +30 очень
душно
1014.0 980.4
06 10.07 ЮЗ 3 14 км 9/9 240 м
[Sc]
+23.0 +21.1 89 +31 +31 очень
душно
1015.0 981.3 +22.9 0.0
09 10.07 ЮЗ 5 14 км 9/9 240 м
[Cu Sc]
+24.1 +21.6 86 +31 +31 очень
душно
1016.1 982.4
12 10.07 З 2 14 км 9/9 270 м
[Cu Sc]
+25.5 +21.2 77 +32 +34 очень
душно
1015.5 982.0
15 10.07 З 4 14 км 8/6 300 м
[Cu Sc Ac trans]
+26.6 +21.8 75 +34 +37 очень
душно
1013.6 980.3
18 10.07 СЗ 1 14 км 9/5 300 м
[Cu Sc Ac trans]
+26.3 +22.2 78 +34 +34 очень
душно
1013.8 980.5 +27.2
21 10.07 ЮЗ 2 14 км 5/0
[Ac trans]
+25.3 +22.4 84 +33 +33 очень
душно
1014.7 981.2
00 11.07 штиль 0 14 км 5/5 300 м
[Sc]
+24.2 +21.7 86 +31 +31 очень
душно
1015.0 981.4
03 11.07 ЮЗ 3 14 км 9/9 240 м
[Sc]
+23.0 +21.6 92 +31 +31 очень
душно
1013.7 980.0
09 11.07 ЮЗ 2 12 км 9/8 240 м
[Cu Sc Ac trans]
+23.6 +21.1 86 +30 +31 очень
душно
1015.8 982.1
12 11.07 ЮЗ 3 14 км 9/6 300 м
[Cu Sc Ac trans]
+27.0 +22.0 74 +35 +39 очень
душно
1014.5 981.2
15 11.07 ЮЗ 3 14 км 8/6 450 м
[Cu med, cong Ac trans]
+28.6 +21.6 66 +37 +39 очень
душно
1012.5 979.5
18 11.07 СЗ 2 14 км 9/6 300 м
[Cb cap Ac trans]
+26.4 +21.6 75 +34 +34 очень
душно
1012.9 979.6 +29.2
21 11.07 ЮЗ 2 14 км 8/0
[Cs]
+25.0 +22.1 84 +32 +32 очень
душно
1013.8 980.3
00 12.07 ЮЗ 2 12 км 6/3 270 м
[St Ac trans]
+24.0 +22.1 89 +31 +31 очень
душно
1013.7 980.1
03 12.07 ЮЗ 3 12 км 9/9 240 м
[Sc]
+23.5 +21.6 89 +30 +30 очень
душно
1013.2 979.6
06 12.07 ЮЗ 2 7000 м дымка 9/9 210 м
[Sc]
+23.0 +21.5 91 +31 +31 очень
душно
1014.7 981.0 +22.6
12 12.07 ЮЗ 2 8000 м слаб. дождь {морось} 9/8 240 м
[Cu Sc Ac trans]
+24.2 +21.3 84 +31 +34 очень
душно
1015.2 981.6 0.5
15 12.07 ЮЗ 2 12 км 9/6 540 м
[Cu med, cong Ac trans]
+27.3 +22.0 73 +35 +38 очень
душно
1012.6 979.4
18 12.07 ЮВ 1 12 км {дождь} 8/4 360 м
[Cu Sc Ac trans Ci sp]
+27.3 +22.0 73 +35 +35 очень
душно
1011.7 978.5 +28.2 0.5
21 12.07 ЮЗ 2 12 км 6/0
[Ac trans]
+25.4 +22.3 83 +33 +33 очень
душно
1014.5 981.0
03 13.07 ЮЗ 3 12 км 9/9 300 м
[Sc]
+23.6 +22.0 91 +30 +30 очень
душно
1013.7 980.1
09 13.07 ЮЗ 3 14 км 9/9 300 м
[Cu Sc]
+25.8 +21.9 79 +33 +34 очень
душно
1015.7 982.2
12 13.07 ЮЗ 6 12 км 8/8 500 м
[Cu med, cong]
+27.8 +22.5 73 +37 +38 очень
душно
1014.5 1015.0
15 13.07 ЮЗ 4 18 км 5/5 540 м
[Cu med, cong]
+30.1 +22.1 62 +39 +43 очень
душно
1011.9 979.0
21 13.07 ЮЗ 4 14 км 8/8 360 м
[Sc Ac trans]
+25.9 +21.8 78 +33 +33 очень
душно
1015.0 981.6
00 14.07 ЮЗ 3 14 км 6/6 330 м
[Sc Ac trans]
+23.9 +21.8 88 +31 +31 очень
душно
1015.3 981.6
03 14.07 Ю 3 14 км 9/9 300 м
[Sc]
+23.1 +21.4 90 +31 +31 очень
душно
1014.4 980.7
06 14.07 ЮЗ 1 14 км 8/3 270 м
[Sc Ac trans Cs]
+22.8 +20.5 87 +30 +30 очень
душно
1014.8 981.0 +22.3 0.0
12 14.07 ЮЗ 2 24 км 6/6 480 м
[Cu med, cong Ac trans]
+26.4 +20.0 68 +32 +41 очень
душно
1015.3 981.9
15 14.07 З 3 24 км 6/6 480 м
[Cu med, cong Ac trans]
+26.5 +21.5 74 +34 +37 очень
душно
1012.2 978.9
18 14.07 СЗ 2 20 км 5/5 450 м
[Cu med, cong]
+27.5 +21.1 68 +35 +35 очень
душно
1011.9 978.8 +28.8
21 14.07 штиль 0 14 км ясно +25.0 +20.7 77 +31 +31 очень
душно
1013.5 980.0
00 15.07 ЮВ 1 12 км ясно +23.6 +21.8 90 +30 +30 очень
душно
1013.5 979.9
03 15.07 штиль 0 12 км ясно +22.9 +20.8 88 +30 +30 очень
душно
1012.5 978.8
06 15.07 ЮЗ 2 5000 м 9/9 240 м
[Sc]
+22.2 +21.0 93 +29 +29 очень
душно
1013.4 979.6 +21.7
09 15.07 З 1 8000 м дымка 9/9 270 м
[Cu Sc]
+23.8 +21.1 85 +30 +31 очень
душно
1014.6 981.0
12 15.07 ЮЗ 2 12 км 8/8 360 м
[Cu Sc]
+27.3 +21.8 72 +35 +39 очень
душно
1013.1 979.9
15 15.07 ЮЗ 3 12 км 8/6 480 м
[Cu med, cong Ac trans]
+28.6 +22.1 68 +37 +40 очень
душно
1010.6 977.6
18 15.07 ЮЗ 2 12 км 6/3 360 м
[Cu Sc Ac trans]
+27.5 +21.3 69 +35 +35 очень
душно
1010.2 977.1 +29.1
21 15.07 ЮЗ 2 12 км 9/6 300 м
[Sc Ac trans]
+26.3 +22.5 80 +35 +35 очень
душно
1012.0 978.7
00 16.07 ЮЗ 3 17 км в посл. час дождь 9/9 300 м
[Sc]
+24.7 +22.6 88 +32 +32 очень
душно
1013.1 979.6 0.0
03 16.07 ЮЗ 2 10 км 6/6 270 м
[Sc]
+23.1 +21.2 89 +31 +31 очень
душно
1012.2 978.6
06 16.07 ЮЗ 2 10 км 8/4 270 м
[Sc Ac trans]
+22.5 +21.0 91 +29 +29 очень
душно
1012.8 979.1 +22.0 0.0
09 16.07 ЮЗ 2 12 км 9/6 270 м
[Cu Sc Ac trans]
+24.4 +21.1 82 +31 +33 очень
душно
1014.6 981.0
12 16.07 ЮЗ 2 14 км 9/6 420 м
[Cu med, cong Ac trans]
+26.9 +21.4 72 +34 +39 очень
душно
1014.2 980.9
15 16.07 ЮЗ 2 10 км 9/6 480 м
[Cu med, cong Ac trans]
+28.5 +20.8 63 +36 +38 очень
душно
1011.6 978.6
18 16.07 ЮЗ 3 14 км 8/4 480 м
[Cu med, cong Ac trans Ci fib]
+27.9 +21.5 68 +36 +36 очень
душно
1011.5 978.4 +29.2
21 16.07 ЮЗ 1 14 км 5/0
[Ac trans]
+25.9 +21.6 77 +33 +33 очень
душно
1018.7 985.2
00 17.07 ЮЗ 2 14 км 8/6 300 м
[St Ac trans]
+24.7 +22.4 87 +32 +32 очень
душно
1014.2 980.7

 

Местоположение метеостанции Кумаси (Гана): широта 6.72 долгота -1.60 высота над уровнем моря 293 м.

В архиве по умолчанию представлена погода в Кумаси за последнюю неделю. Архивные данные за месяц целиком и за предыдущие месяцы, начиная с января 2011 года, Вы можете получить, выбрав интересующий диапазон дат из раскрывающегося списка и нажав кнопку "Ввод!".


*Определитесь, кто Вы:
робот инопланетянин человек

Внимание! Время в таблицах - всемирное. Для получения местного времени необходимо прибавить поправку, которая равна 1 ч.

Смотрите также архив погоды в соседних городах и на ближайших метеорологических станциях:

Погода в Абетифи (Гана) (94 км)
Погода в Сефви Беквай (Гана) (99 км)
Погода в Суняни (Гана) (105 км)
Погода в Аким Ода (Гана) (111 км)
Погода в Уэнчи (Гана) (127 км)
Погода в Кофоридуа (Гана) (165 км)
Погода в Солтпонде (Гана) (179 км)
Погода в Бондуку (Кот-д'Ивуар) (197 км)
Погода в Аккра (Гана) (201 км)
Погода в Акюсе (Гана) (202 км)

Пояснения к столбцам:

Ветер - указаны скорость ветра в м/с - средняя за 10 мин, порывы в срок и между сроками (в фигурных скобках) и направление, откуда дует ветер: С - северный, СВ - северо-восточный, В - восточный, ЮВ - юго-восточный, Ю - южный, ЮЗ - юго-западный, З - западный, СЗ - северо-западный.
Видимость - горизонтальная дальность видимости в метрах или километрах. При видимости от 1 до 10 км при отсутствии осадков обычно наблюдается дымка, при ухудшении видимости до 1 км и менее - туман. В сухую погоду видимость может ухудшаться дымом, пылью или мглою.
Явления - указаны атмосферные явления, наблюдавшиеся в срок или в последний час перед сроком; фигурными скобками обозначены явления, наблюдавшиеся между сроками (за 1-3 часа до срока); квадратными скобками обозначены град или гололедные отложения с указанием их диаметра в мм.
Облачность - указаны через наклонную черту общая и нижняя облачность в баллах и высота нижней границы облаков в метрах; квадратными скобками обозначены формы облаков: Ci - перистые, Cs - перисто-слоистые, Cc - перисто-кучевые, Ac - высококучевые, As - высокослоистые, Sc - слоисто-кучевые, Ns - слоисто-дождевые, Cu - кучевые, Cb - кучево-дождевые. Подробнее классификацию облаков см. в Атласе облаков (PDF).
T - Температура воздуха - температура, измеренная на высоте 2 м над землей.
Td - Температура точки росы - температура, при понижении до которой содержащийся в воздухе водяной пар достигнет насыщения.
f - Относительная влажность воздуха - влажноcть воздуха, измеренная на высоте 2 м над землей.
Te - Эффективная температура - температура, которую ощущает одетый по сезону человек в тени. Характеристика душности погоды. При расчете учитывается влияние влажности воздуха и скорости ветра на теплоощущения человека.
Tes - Эффективная температура на солнце - температура, которую ощущает человек, с поправкой на солнечный нагрев. Характеристика знойности погоды. Зависит от высоты солнца над горизонтом, облачности и скорости ветра. Ночью, в пасмурную погоду, а также при ветре 12 м/с и более поправка равна нулю.
P - Атмосферное давление - приведенное к уровню моря атмосферное давление.
Po - Атмосферное давление - измеренное на уровне метеостанции атмосферное давление.
Tmin - Минимальная температура - минимум температуры воздуха на высоте 2 м над землей.
Tmax - Максимальная температура - максимум температуры воздуха на высоте 2 м над землей.
R - Количество осадков - Количество выпавших осадков за период времени, мм. При наведении курсора мыши на число - период времени, за который выпало указанное количество осадков.
R24 - Количество осадков - Количество выпавших осадков за 24 часа, мм.
S - Снежный покров - Высота снежного покрова, см. При наведении курсора мыши на число - состояние снежного покрова и степень покрытия местности в баллах.